Location: Martley
(52.2333°N, 2.3667°W)
Time: 15:42:33
(UTC+00:00)

Timation 1 Rocket - Pass Details

Date: 11 December 2019
Orbit: 897 x 910 km, 70.0° (Epoch: 27 January)

Event Time Altitude Azimuth Distance (km) Brightness Sun altitude
Rises 06:18:21 0° 221° (SW) 3,505 7.2 -15.6°
Reaches altitude 10° 06:20:51 10° 224° (SW) 2,569 6.5 -15.3°
Maximum altitude 06:26:46 66° 307° (NW) 983 4.3 -14.4°
Drops below altitude 10° 06:32:43 10° 30° (NNE) 2,591 6.9 -13.6°
Sets 06:35:16 0° 33° (NNE) 3,537 7.6 -13.2°
